Location: Gro�bocka
(50.8204°N, 11.9702°E)
Time: 22:11:04
(UTC+00:00)

X-37B - Pass Details

Date: 26 June 2021
Orbit: 383 x 392 km, 45.0° (Epoch: 01 July)

Event Time Altitude Azimuth Distance (km) Brightness Sun altitude
Rises 22:24:40 0° 262° (W) 2,257 4.5 -15.0°
Reaches altitude 10° 22:26:57 10° 248° (WSW) 1,402 3.3 -15.1°
Enters shadow 22:28:10 18° 230° (SW) 1,039 2.5 -15.1°
